Weather History for Fulton Cnty AP, Rochester, IN, IN

Change the Weather History Date:

Tuesday, April 22, 2014

  Actual Average Record
Temperature  
Mean Temperature 51 °F -  
Max Temperature 60 °F 61 °F 64 °F (2013)
Min Temperature 41 °F 41 °F 33 °F (2013)
Degree Days  
Heating Degree Days 14    
Growing Degree Days 1 (Base 50)    
Moisture  
Dew Point 38 °F    
Average Humidity 63    
Maximum Humidity 100    
Minimum Humidity 41    
Precipitation  
Precipitation 0.01 in - - ()
Sea Level Pressure  
Sea Level Pressure 29.91 in    
Wind  
Wind Speed 12 mph (NW)    
Max Wind Speed 24 mph    
Max Gust Speed 29 mph    
Visibility 9 miles    
Events Rain    
Averages and records for this station are not official NWS values.
T = Trace of Precipitation, MM = Missing Value Source: NWS Daily Summary

Daily Weather History Graph

Daily Weather History Graph

Search for Another Location

Airport:

Trip Planner

Search our weather history database for the weather conditions in past years. The results will help you decide how hot, cold, wet, or windy it might be!

Date:

Astronomy

Apr. 22, 2014 Rise Set
Actual Time 6:55 AM EDT 8:32 PM EDT
Civil Twilight 6:25 AM EDT 9:01 PM EDT
Nautical Twilight 5:50 AM EDT 9:36 PM EDT
Astronomical Twilight 5:13 AM EDT 10:14 PM EDT
Moon 2:47 AM EDT (4/22) 1:29 PM EDT (4/22)
Length of Visible Light 14h 35m
Length of Day
13h 37m
Last Quarter, 46% of the Moon is Illuminated
Apr 22
Last Quarter
Apr 29
New
May 6
First Quarter
May 14
Full
May 21
Last Quarter

Hourly Weather History & Observations

Time (EDT) Temp. Windchill Dew Point Humidity Pressure Visibility Wind Dir Wind Speed Gust Speed Precip Events Conditions
12:15 AM 60.8 °F - 55.4 °F 82% 29.82 in 7.0 mi West 9.2 mph - N/A   Drizzle
12:35 AM 60.8 °F - 55.4 °F 82% 29.82 in 7.0 mi WSW 9.2 mph - N/A   Drizzle
12:55 AM 60.8 °F - 57.2 °F 88% 29.82 in 7.0 mi WSW 8.1 mph - N/A   Mostly Cloudy
1:15 AM 59.0 °F - 57.2 °F 94% 29.81 in 7.0 mi WSW 6.9 mph - N/A   Light Drizzle
1:35 AM 59.0 °F - 57.2 °F 94% 29.81 in 7.0 mi WSW 8.1 mph - N/A   Mostly Cloudy
1:55 AM 59.0 °F - 57.2 °F 94% 29.80 in 4.0 mi WSW 9.2 mph - N/A Rain Light Rain
2:10 AM 59.0 °F - 59.0 °F 100% 29.81 in 4.0 mi West 5.8 mph - N/A Rain Light Rain
2:35 AM 59.0 °F - 59.0 °F 100% 29.80 in 5.0 mi West 6.9 mph - 0.01 in   Overcast
2:55 AM 59.0 °F - 59.0 °F 100% 29.79 in 5.0 mi West 6.9 mph - 0.01 in   Overcast
3:15 AM 59.0 °F - 59.0 °F 100% 29.78 in 4.0 mi West 8.1 mph - N/A   Overcast
3:35 AM 59.0 °F - 59.0 °F 100% 29.78 in 4.0 mi West 6.9 mph - N/A   Overcast
3:55 AM 59.0 °F - 59.0 °F 100% 29.78 in 4.0 mi West 11.5 mph 18.4 mph N/A   Overcast
4:15 AM 60.8 °F - 59.0 °F 94% 29.78 in 4.0 mi WNW 5.8 mph - N/A   Overcast
4:35 AM 60.8 °F - 59.0 °F 94% 29.78 in 4.0 mi WNW 8.1 mph - N/A   Mostly Cloudy
4:55 AM 60.8 °F - 53.6 °F 77% 29.78 in 7.0 mi NW 16.1 mph 20.7 mph N/A   Mostly Cloudy
5:15 AM 53.6 °F - 46.4 °F 77% 29.80 in 10.0 mi NW 21.9 mph 27.6 mph N/A   Scattered Clouds
5:35 AM 48.2 °F - 42.8 °F 82% 29.81 in 10.0 mi NNW 24.2 mph 28.8 mph N/A   Scattered Clouds
6:15 AM 46.4 °F 40.4 °F 37.4 °F 71% 29.83 in 10.0 mi NNW 13.8 mph 17.3 mph N/A   Clear
6:35 AM 46.4 °F 39.8 °F 35.6 °F 66% 29.84 in 10.0 mi NNW 16.1 mph 21.9 mph N/A   Clear
6:55 AM 44.6 °F 38.1 °F 35.6 °F 71% 29.85 in 10.0 mi NNW 13.8 mph 18.4 mph N/A   Scattered Clouds
7:15 AM 44.6 °F 37.8 °F 33.8 °F 66% 29.86 in 10.0 mi NNW 15.0 mph 23.0 mph N/A   Scattered Clouds
7:55 AM 44.6 °F 36.9 °F 33.8 °F 66% 29.87 in 10.0 mi North 18.4 mph 28.8 mph N/A   Clear
8:15 AM 44.6 °F 38.1 °F 33.8 °F 66% 29.89 in 10.0 mi NNW 13.8 mph 24.2 mph N/A   Clear
8:35 AM 46.4 °F 40.1 °F 33.8 °F 62% 29.89 in 10.0 mi NNW 15.0 mph 18.4 mph N/A   Clear
8:55 AM 46.4 °F 40.1 °F 33.8 °F 62% 29.89 in 10.0 mi North 15.0 mph 25.3 mph N/A   Clear
9:15 AM 46.4 °F 40.1 °F 33.8 °F 62% 29.90 in 10.0 mi NNW 15.0 mph 25.3 mph N/A   Clear
9:35 AM 46.4 °F 39.2 °F 33.8 °F 62% 29.90 in 10.0 mi NNW 18.4 mph 24.2 mph N/A   Clear
9:55 AM 48.2 °F - 33.8 °F 58% 29.90 in 10.0 mi North 20.7 mph 28.8 mph N/A   Clear
10:15 AM 50.0 °F - 33.8 °F 54% 29.91 in 10.0 mi North 16.1 mph 23.0 mph N/A   Clear
10:35 AM 50.0 °F - 33.8 °F 54% 29.92 in 10.0 mi North 18.4 mph 27.6 mph N/A   Clear
10:55 AM 50.0 °F - 33.8 °F 54% 29.92 in 10.0 mi North 17.3 mph 25.3 mph N/A   Clear
11:15 AM 51.8 °F - 33.8 °F 50% 29.92 in 10.0 mi North 18.4 mph 24.2 mph N/A   Clear
11:35 AM 51.8 °F - 33.8 °F 50% 29.93 in 10.0 mi North 20.7 mph 25.3 mph N/A   Scattered Clouds
11:55 AM 51.8 °F - 33.8 °F 50% 29.93 in 10.0 mi NW 19.6 mph - N/A   Scattered Clouds
12:15 PM 51.8 °F - 33.8 °F 50% 29.94 in 10.0 mi NNW 19.6 mph 26.5 mph N/A   Scattered Clouds
12:35 PM 51.8 °F - 32.0 °F 47% 29.94 in 10.0 mi NNW 15.0 mph 24.2 mph N/A   Clear
12:55 PM 51.8 °F - 32.0 °F 47% 29.95 in 10.0 mi NW 13.8 mph 26.5 mph N/A   Clear
1:15 PM 51.8 °F - 32.0 °F 47% 29.94 in 10.0 mi NW 17.3 mph 25.3 mph N/A   Clear
1:35 PM 51.8 °F - 32.0 °F 47% 29.94 in 10.0 mi WNW 15.0 mph 21.9 mph N/A   Scattered Clouds
1:55 PM 53.6 °F - 32.0 °F 44% 29.93 in 10.0 mi NNW 15.0 mph 24.2 mph N/A   Scattered Clouds
2:15 PM 53.6 °F - 32.0 °F 44% 29.93 in 10.0 mi NNW 15.0 mph 24.2 mph N/A   Clear
2:35 PM 53.6 °F - 32.0 °F 44% 29.93 in 10.0 mi NW 13.8 mph 28.8 mph N/A   Clear
2:55 PM 53.6 °F - 32.0 °F 44% 29.93 in 10.0 mi NW 16.1 mph 26.5 mph N/A   Clear
3:15 PM 53.6 °F - 32.0 °F 44% 29.94 in 10.0 mi NW 18.4 mph 24.2 mph N/A   Clear
3:35 PM 53.6 °F - 32.0 °F 44% 29.94 in 10.0 mi NNW 19.6 mph 25.3 mph N/A   Clear
3:55 PM 53.6 °F - 32.0 °F 44% 29.94 in 10.0 mi NNW 13.8 mph 25.3 mph N/A   Clear
4:15 PM 53.6 °F - 32.0 °F 44% 29.94 in 10.0 mi NNW 15.0 mph 25.3 mph N/A   Clear
4:35 PM 53.6 °F - 32.0 °F 44% 29.94 in 10.0 mi NNW 15.0 mph 23.0 mph N/A   Clear
4:55 PM 53.6 °F - 32.0 °F 44% 29.95 in 10.0 mi NNW 18.4 mph 23.0 mph N/A   Clear
5:15 PM 53.6 °F - 30.2 °F 41% 29.95 in 10.0 mi NNW 17.3 mph 20.7 mph N/A   Clear
5:35 PM 53.6 °F - 30.2 °F 41% 29.95 in 10.0 mi NNW 17.3 mph 23.0 mph N/A   Clear
5:55 PM 53.6 °F - 30.2 °F 41% 29.95 in 10.0 mi North 16.1 mph 24.2 mph N/A   Clear
6:15 PM 53.6 °F - 32.0 °F 44% 29.95 in 10.0 mi North 13.8 mph 21.9 mph N/A   Clear
6:35 PM 53.6 °F - 32.0 °F 44% 29.96 in 10.0 mi NNW 15.0 mph 19.6 mph N/A   Clear
6:55 PM 53.6 °F - 32.0 °F 44% 29.96 in 10.0 mi NNW 12.7 mph 18.4 mph N/A   Clear
7:15 PM 51.8 °F - 32.0 °F 47% 29.96 in 10.0 mi NNW 9.2 mph 18.4 mph N/A   Clear
7:35 PM 51.8 °F - 32.0 °F 47% 29.97 in 10.0 mi North 13.8 mph 19.6 mph N/A   Clear
7:55 PM 50.0 °F - 32.0 °F 50% 29.98 in 10.0 mi North 11.5 mph 19.6 mph N/A   Clear
8:15 PM 48.2 °F - 32.0 °F 54% 29.97 in 10.0 mi NNW 9.2 mph - N/A   Clear
8:35 PM 46.4 °F 41.9 °F 32.0 °F 57% 29.98 in 10.0 mi NNW 9.2 mph - N/A   Clear
8:55 PM 46.4 °F 42.9 °F 32.0 °F 57% 29.98 in 10.0 mi NNW 6.9 mph - N/A   Clear
9:15 PM 44.6 °F 40.7 °F 32.0 °F 61% 30.00 in 10.0 mi NNW 6.9 mph - N/A   Clear
9:35 PM 44.6 °F 41.4 °F 32.0 °F 61% 30.01 in 10.0 mi North 5.8 mph - N/A   Clear
9:55 PM 44.6 °F 39.7 °F 32.0 °F 61% 30.02 in 10.0 mi NNW 9.2 mph - N/A   Clear
10:15 PM 44.6 °F 40.7 °F 32.0 °F 61% 30.03 in 10.0 mi North 6.9 mph - N/A   Clear
10:35 PM 42.8 °F 38.6 °F 32.0 °F 66% 30.03 in 10.0 mi NNW 6.9 mph - N/A   Clear
10:55 PM 42.8 °F 38.6 °F 32.0 °F 66% 30.03 in 10.0 mi NW 6.9 mph - N/A   Clear
11:15 PM 42.8 °F 38.0 °F 32.0 °F 66% 30.03 in 10.0 mi NW 8.1 mph - N/A   Clear
11:35 PM 42.8 °F 38.0 °F 30.2 °F 61% 30.03 in 10.0 mi NW 8.1 mph - N/A   Clear
11:55 PM 41.0 °F 35.2 °F 30.2 °F 65% 30.02 in 10.0 mi NW 9.2 mph - N/A   Clear